TimeAKST,TemperatureF,Dew PointF,Humidity,Sea Level PressureIn,VisibilityMPH,Wind Direction,Wind SpeedMPH,Gust SpeedMPH,PrecipitationIn,Events,Conditions,WindDirDegrees,DateUTC
12:54 AM,23.0,10.9,60,30.47,10.0,NW,13.8,-,N/A,,Clear,310,2012-11-08 09:54:00
1:54 AM,21.9,10.9,63,30.47,10.0,NW,16.1,21.9,N/A,,Clear,310,2012-11-08 10:54:00
2:54 AM,21.9,10.0,60,30.47,10.0,NW,19.6,24.2,N/A,,Clear,310,2012-11-08 11:54:00
3:54 AM,19.9,10.9,68,30.45,10.0,NW,16.1,-,N/A,,Clear,310,2012-11-08 12:54:00
4:54 AM,19.9,10.0,65,30.46,10.0,NW,18.4,27.6,N/A,,Clear,310,2012-11-08 13:54:00
5:54 AM,19.0,10.9,71,30.45,10.0,WNW,12.7,-,N/A,,Clear,300,2012-11-08 14:54:00
6:54 AM,21.0,10.0,63,30.46,10.0,NW,15.0,26.5,N/A,,Clear,310,2012-11-08 15:54:00
7:54 AM,19.0,10.9,71,30.46,10.0,NW,15.0,20.7,N/A,,Clear,310,2012-11-08 16:54:00
8:54 AM,19.9,10.0,65,30.46,10.0,NW,13.8,-,N/A,,Clear,310,2012-11-08 17:54:00
9:54 AM,21.0,10.9,65,30.46,10.0,WNW,12.7,-,N/A,,Clear,300,2012-11-08 18:54:00
10:54 AM,21.9,10.0,60,30.46,10.0,WNW,17.3,-,N/A,,Clear,300,2012-11-08 19:54:00
11:54 AM,24.1,10.0,55,30.45,10.0,NW,16.1,-,N/A,,Clear,320,2012-11-08 20:54:00
12:54 PM,25.0,10.9,55,30.44,10.0,WNW,17.3,-,N/A,,Clear,300,2012-11-08 21:54:00
1:54 PM,25.0,10.9,55,30.44,10.0,WNW,15.0,-,N/A,,Clear,300,2012-11-08 22:54:00
2:54 PM,24.1,12.0,60,30.43,10.0,WNW,12.7,-,N/A,,Clear,300,2012-11-08 23:54:00
3:54 PM,24.1,10.9,57,30.43,10.0,WNW,13.8,-,N/A,,Clear,300,2012-11-09 00:54:00
4:54 PM,24.1,10.9,57,30.43,10.0,NW,13.8,19.6,N/A,,Clear,320,2012-11-09 01:54:00
5:54 PM,21.9,12.0,66,30.43,10.0,NW,12.7,17.3,N/A,,Clear,320,2012-11-09 02:54:00
6:54 PM,21.9,10.9,63,30.44,10.0,NW,9.2,18.4,N/A,,Clear,310,2012-11-09 03:54:00
7:54 PM,21.0,10.9,65,30.44,10.0,NW,9.2,17.3,N/A,,Clear,310,2012-11-09 04:54:00
8:54 PM,19.9,10.9,68,30.44,10.0,WNW,16.1,21.9,N/A,,Clear,300,2012-11-09 05:54:00
9:54 PM,23.0,9.0,55,30.44,10.0,WNW,12.7,21.9,N/A,,Clear,300,2012-11-09 06:54:00
10:54 PM,21.0,10.0,63,30.43,10.0,NW,13.8,19.6,N/A,,Clear,310,2012-11-09 07:54:00
11:54 PM,19.0,10.0,68,30.43,9.0,WNW,13.8,-,N/A,,Clear,300,2012-11-09 08:54:00